Regional Weather Roundup
Issued by NWS Newport/Morehead, NC

Current Version | Previous Version | Text Only | Print | Product List | Glossary Off
Versions: 1 2 3 4 5 6 7 8 9 10 11 12 13 14 15 16 17 18 19 20 21 22 23 24 25 26 27 28 29 30 31 32 33 34 35 36 37 38 39 40 41 42 43 44 45 46 47 48 49 50
000 ASUS42 KMHX 272013 RWRMHX WEATHER ROUNDUP FOR EASTERN NORTH CAROLINA NATIONAL WEATHER SERVICE NEWPORT/MOREHEAD CITY NC 400 PM EDT SAT AUG 27 2016 NOTE: "FAIR" INDICATES FEW OR NO CLOUDS BELOW 12,000 FEET WITH NO SIGNIFICANT WEATHER AND/OR OBSTRUCTIONS TO VISIBILITY NCZ015>017-031-032-045>047-102-103-272100- NORTH COAST CITY SKY/WX TMP DP RH WIND PRES REMARKS EDENTON SUNNY 92 72 52 E7 30.09S HX 100 ELIZABETH CITY SUNNY 90 72 55 NE15 30.09F KITTY HAWK CLEAR 87 81 80 N8 30.08F HX 104 MANTEO SUNNY 87 75 68 NE9 30.10S $$ NCZ045>047-081-094-103-104-272100- CENTRAL COAST CITY SKY/WX TMP DP RH WIND PRES REMARKS FRISCO SUNNY 88 74 63 VRB7 30.08F $$ NCZ095-097-098-100-101-272100- SOUTHERN COAST CITY SKY/WX TMP DP RH WIND PRES REMARKS BEAUFORT SUNNY 88 76 67 E10 30.07S CEDAR ISLAND NOT AVBL JACKSONVILLE MOSUNNY 90 75 61 SE13 30.05F HX 100 PINEY ISLAND NOT AVBL WILMINGTON SUNNY 88 73 61 SE9 30.07F $$ NCZ011>013-027>030-043-044-078>080-089-090>093-098-272100- COASTAL PLAIN CITY SKY/WX TMP DP RH WIND PRES REMARKS AHOSKIE SUNNY 91 67 45 NE10 30.09S CLINTON LGT RAIN 79 78 96 CALM 30.07F ELIZABETHTOWN MOSUNNY 93 73 51 CALM 30.05F HX 101 GOLDSBORO MOSUNNY 94 73 49 E12 30.05F HX 102 GREENVILLE MOSUNNY 93 72 49 NE8 30.07F HX 100 HAVELOCK SUNNY 92 70 48 E12 30.07F KENANSVILLE SUNNY 93 73 52 E3 30.06F HX 102 KINSTON SUNNY 95 72 46 NE8 30.06F HX 103 NEW BERN PTSUNNY 92 74 55 SE6 30.07F HX 101 RICHLANDS MOSUNNY 93 74 53 E9 30.06F HX 103 ROCKY MOUNT MOSUNNY 96 74 48 VRB6 30.07F HX 107 WASHINGTON SUNNY 92 73 53 NE8 30.06F HX 100 WHITEVILLE MOSUNNY 92 73 52 E8 30.05F HX 100 $$ AMZ130-135-150-152-154-156-158-170-250-252-270-ANZ085-086-088-633-658-670-272100- MARINE OBSERVATIONS STATION/POSITION TIME TEMP WIND PRES WAVE SWELL AIR SEA DIR/SP/G HT/PER HT/PER (UTC) (F) (DEG/KT/KT) (MB) (FT/S) (FT/S) CHESAPEAKE LIGHT NOT AVBL 64 E VA BEACH 1950 81 82 40/ 12/ 14 1018.9 2/ 9 2/ 9 DUCK 1900 80 76 360/ 8/ 9 1018.8 2 E DUCK 1911 80 N/A 2/ 9 OREGON INLET 1900 83 81 20/ 9/ 13 1019.0 13E OREGON INLT 2000 82 N/A 3/ 9 3/ 9 HATTERAS CG 1900 84 83 360/ 8/ 10 1018.6 DIAMOND BUOY 1850 83 85 40/ 6/ 8 1019.0 3/10 3/10 CAPE LOOKOUT 2000 83 100/ 10/ 11 1018.2 BEAUFORT LAB 1900 86 82 140/ 10/ 12 1017.8 30 SE NEW RVR IN 1908 84 85 110/ 6/ 10 1018.7 30 SE NEW RVR IN 1925 85 N/A 3/ 9 2/11 27 SE WRIGHTSVLE 1908 83 84 80/ 6/ 10 1018.7 5 SE WRIGHTSVLE 1908 83 85 130/ 6/ 10 1019.6 225 S CAPE HAT 1950 83 84 60/ 16/ 17 1016.0 4/ 8 3/ 8 41 SE CHARLESTON 1950 83 85 70/ 12/ 16 1017.2 4/10 3/10 $$

USA.gov is the U.S. government's official web portal to all federal, state and local government web resources and services.